Starlink 35251

operational
NORAD ID: 65604 Int'l Des: 2025-207 Owner: SPXS Country: US Constellation: starlink
NOTLE

Starlink 35251について

説明を読み込み中...

リアルタイム位置

3D地球を読み込み中...

次回通過

高度履歴

Altitude vs Time

uPlot chart will show altitude changes over time

軌道要素

1 65604U 25207N 25354.25003472 -.02574445 00000-0 -97422-1 0 9997
2 65604 97.6034 60.2605 0001573 73.0707 200.8490 15.30520671 5830
Epoch: Dec 20, 2025 • Age: 10 hours

現在のステータス

高度 493.3 km
速度 7.63 km/s
衛星直下点 73.54°N, 65.92°W
打ち上げ日 Sep 13, 2025
運用期間 0.2 years
タイプ internet

技術仕様

分類 Payload
質量 575.00 kg
乾燥質量 530.00 kg
総質量 575.00 kg
長さ 0.30 m
直径 4.10 m
スパン 29.00 m
形状 Box + pan
製造者 SPXS
バスタイプ Starlink V2MO
フェーズステータス In Orbit
所有者/国 SPXS/US

大規模コンステレーション

Loading constellations...